FW5955 Weather Reports


time (UTC)temp
C
wind
direction
speed
KPH
gust
KPH
rain 1hr
cm
rain 24hr
cm
rain mn
cm
humidity
%
barometer
mb
20260509190032 10 255 11.3 27.4 0.00 0.00 0.00 69 1017.9
20260509184538 11 236 17.7 29.0 0.00 0.00 0.00 65 1017.8
20260509183032 11 203 16.1 27.4 0.00 0.00 0.00 65 1017.8
20260509181525 11 240 17.7 30.6 0.00 0.00 0.00 66 1017.7
20260509180024 10 217 16.1 30.6 0.00 0.00 0.00 71 1017.6
20260509174523 9 237 16.1 25.7 0.00 0.00 0.00 78 1017.6
20260509173027 9 249 17.7 29.0 0.00 0.00 0.00 79 1017.5
20260509171530 10 256 14.5 25.7 0.00 0.00 0.00 78 1017.3
20260509170019 10 251 12.9 20.9 0.00 0.00 0.00 75 1017.2
20260509164520 11 181 11.3 22.5 0.00 0.00 0.00 71 1017.1
20260509163025 11 216 14.5 27.4 0.00 0.00 0.00 65 1017.1
20260509161523 11 262 11.3 24.1 0.00 0.00 0.00 61 1017.1
20260509160018 12 236 11.3 20.9 0.00 0.00 0.00 60 1017.0
20260509154515 12 169 9.7 20.9 0.00 0.00 0.00 61 1016.8
20260509153024 12 240 14.5 24.1 0.00 0.00 0.00 57 1016.9
20260509151512 12 236 12.9 22.5 0.00 0.00 0.00 55 1016.9
20260509150009 12 227 11.3 22.5 0.00 0.00 0.00 61 1016.8
20260509144508 11 253 14.5 22.5 0.00 0.00 0.00 64 1016.7
20260509143007 12 293 9.7 19.3 0.00 0.00 0.00 64 1016.6
20260509141507 11 242 9.7 22.5 0.00 0.00 0.00 68 1016.5
20260509140002 11 238 14.5 20.9 0.00 0.00 0.00 65 1016.3
20260509134600 11 247 9.7 19.3 0.00 0.00 0.00 65 1016.2
20260509133105 11 248 11.3 17.7 0.00 0.00 0.00 65 1016.0
20260509131554 11 254 6.4 16.1 0.00 0.00 0.00 67 1015.7
20260509130055 11 250 8.0 16.1 0.00 0.00 0.00 67 1015.8
20260509124556 11 246 4.8 12.9 0.00 0.00 0.00 68 1015.5
20260509123054 11 220 4.8 9.7 0.00 0.00 0.00 70 1015.5
20260509121556 10 259 6.4 14.5 0.00 0.00 0.00 71 1015.4
20260509120044 11 233 6.4 11.3 0.00 0.00 0.00 70 1015.3
20260509114555 10 240 4.8 9.7 0.00 0.00 0.00 71 1015.2
20260509113040 10 188 4.8 9.7 0.00 0.00 0.00 73 1015.1
20260509111537 10 223 0.0 6.4 0.00 0.00 0.00 74 1014.8
20260509110033 9 254 1.6 6.4 0.00 0.00 0.00 74 1014.6
20260509104529 8 267 0.0 4.8 0.00 0.00 0.00 77 1014.3
20260509103025 7 234 0.0 3.2 0.00 0.00 0.00 82 1014.2
20260509101524 6 73 0.0 1.6 0.00 0.00 0.00 87 1014.0
20260509100019 5 32 0.0 1.6 0.00 0.00 0.00 91 1013.6
20260509094523 3 32 0.0 0.0 0.00 0.03 0.00 91 1013.2
20260509093015 3 32 0.0 1.6 0.00 0.03 0.00 90 1013.0
20260509091513 3 258 0.0 1.6 0.00 0.03 0.00 91 1012.7
20260509090031 3 270 0.0 3.2 0.00 0.03 0.00 91 1012.5
20260509084510 3 278 0.0 4.8 0.00 0.03 0.00 92 1012.4
20260509083018 3 264 0.0 1.6 0.00 0.03 0.00 92 1012.1
20260509081506 3 268 0.0 1.6 0.00 0.03 0.00 91 1012.0
20260509080002 4 307 0.0 4.8 0.00 0.03 0.00 91 1011.9
20260509074603 4 258 1.6 6.4 0.00 0.03 0.00 91 1011.7
20260509073113 4 265 1.6 6.4 0.00 0.03 0.00 91 1011.7
20260509071601 4 266 3.2 6.4 0.00 0.03 0.00 90 1011.6
20260509070059 4 254 1.6 6.4 0.00 0.03 0.00 90 1011.5
20260509064553 4 266 0.0 6.4 0.00 0.03 0.00 90 1011.3
20260509063102 4 275 1.6 4.8 0.00 0.03 0.00 89 1011.0
20260509061549 4 257 0.0 6.4 0.00 0.03 0.00 88 1010.9
20260509060049 5 248 1.6 6.4 0.00 0.03 0.00 88 1010.6
20260509054545 5 266 3.2 6.4 0.00 0.03 0.00 87 1010.5
20260509053046 5 268 1.6 4.8 0.00 0.03 0.00 87 1010.2
20260509051544 5 276 1.6 6.4 0.00 0.03 0.00 87 1010.0
20260509050050 4 277 1.6 6.4 0.00 0.03 0.00 87 1009.8
20260509044535 5 238 0.0 4.8 0.00 0.03 0.00 86 1009.6
20260509043039 5 259 0.0 1.6 0.00 0.03 0.00 86 1009.4
20260509041528 5 277 0.0 3.2 0.00 0.03 0.00 84 1009.3
20260509040026 5 270 0.0 3.2 0.00 0.03 0.00 84 1009.2
20260509034525 5 266 0.0 1.6 0.00 0.03 0.00 84 1009.0
20260509033029 5 270 0.0 1.6 0.00 0.03 0.00 83 1008.8
20260509031524 5 336 0.0 0.0 0.00 0.03 0.00 81 1008.7
20260509030021 6 336 0.0 0.0 0.00 0.03 0.00 79 1008.6
20260509024516 6 336 0.0 1.6 0.00 0.03 0.03 78 1008.4
20260509023015 7 336 0.0 3.2 0.00 0.03 0.03 77 1008.3
20260509021514 7 317 0.0 3.2 0.00 0.03 0.03 76 1008.2
20260509020011 7 333 0.0 6.4 0.00 0.03 0.03 76 1008.0
20260509014512 7 272 0.0 4.8 0.00 0.03 0.03 75 1007.9
20260509013009 8 271 0.0 4.8 0.00 0.03 0.03 74 1007.7
20260509011509 8 304 1.6 8.0 0.00 0.03 0.03 73 1007.3
20260509010011 8 278 0.0 4.8 0.00 0.03 0.03 71 1007.0
20260509004504 8 291 0.0 4.8 0.00 0.03 0.03 69 1006.8
20260509003102 9 252 1.6 8.0 0.00 0.03 0.03 68 1006.6
20260509001558 9 277 0.0 4.8 0.00 0.03 0.03 66 1006.2
20260509000054 10 249 1.6 6.4 0.00 0.03 0.03 64 1005.8
20260508234552 10 262 0.0 8.0 0.00 0.03 0.03 62 1005.5
20260508233049 11 317 0.0 6.4 0.00 0.03 0.03 59 1005.1
20260508231552 11 314 0.0 8.0 0.00 0.03 0.03 56 1004.7
20260508230042 12 255 1.6 9.7 0.00 0.03 0.03 53 1004.3
20260508224559 13 252 3.2 12.9 0.00 0.03 0.03 50 1004.0
20260508223038 13 301 3.2 12.9 0.00 0.03 0.03 48 1003.7
20260508221544 13 8 1.6 6.4 0.00 0.03 0.03 44 1003.3
20260508220132 14 231 1.6 12.9 0.00 0.03 0.03 41 1003.1
20260508214538 15 316 3.2 14.5 0.00 0.03 0.03 39 1002.9
20260508213033 15 143 1.6 11.3 0.00 0.03 0.03 41 1002.7
20260508211528 15 35 1.6 14.5 0.00 0.03 0.03 41 1002.5
20260508210027 14 99 0.0 8.0 0.00 0.03 0.03 44 1002.3
20260508204527 14 231 3.2 9.7 0.00 0.03 0.03 43 1002.2
20260508203026 15 253 4.8 11.3 0.00 0.03 0.03 42 1002.0
20260508201526 16 254 3.2 20.9 0.00 0.03 0.03 40 1001.8
20260508200037 16 248 4.8 17.7 0.00 0.03 0.03 42 1001.6
20260508194524 16 349 3.2 12.9 0.00 0.03 0.03 43 1001.6
20260508193023 16 252 3.2 12.9 0.00 0.03 0.03 43 1001.4
20260508191520 16 256 1.6 17.7 0.00 0.03 0.03 48 1001.3